TimeEST,TemperatureF,Dew PointF,Humidity,Sea Level PressureIn,VisibilityMPH,Wind Direction,Wind SpeedMPH,Gust SpeedMPH,PrecipitationIn,Events,Conditions,WindDirDegrees,DateUTC
12:51 AM,42.1,39.0,89,30.41,10.0,Calm,Calm,-,N/A,,Clear,0,2012-11-12 05:51:00
1:51 AM,39.9,37.9,93,30.42,9.0,Calm,Calm,-,N/A,,Clear,0,2012-11-12 06:51:00
2:51 AM,44.1,39.0,82,30.40,10.0,Calm,Calm,-,N/A,,Clear,0,2012-11-12 07:51:00
3:51 AM,37.4,35.6,93,30.37,9.0,Calm,Calm,-,N/A,,Clear,0,2012-11-12 08:51:00
4:51 AM,37.9,36.0,93,30.41,10.0,South,3.5,-,N/A,,Clear,170,2012-11-12 09:51:00
5:51 AM,37.9,37.0,97,30.41,8.0,Calm,Calm,-,N/A,,Clear,0,2012-11-12 10:51:00
6:51 AM,39.2,37.4,93,30.37,7.0,SSW,3.5,-,N/A,,Clear,210,2012-11-12 11:51:00
7:51 AM,50.0,39.9,68,30.39,10.0,South,3.5,-,N/A,,Clear,180,2012-11-12 12:51:00
8:51 AM,54.0,39.9,59,30.38,10.0,South,15.0,-,N/A,,Clear,170,2012-11-12 13:51:00
9:51 AM,57.9,41.0,53,30.35,10.0,SSE,15.0,-,N/A,,Clear,160,2012-11-12 14:51:00
10:51 AM,61.0,42.1,50,30.33,10.0,South,11.5,-,N/A,,Clear,170,2012-11-12 15:51:00
11:51 AM,66.2,41.0,40,30.30,10.0,SSW,12.7,19.6,N/A,,Clear,210,2012-11-12 16:51:00
12:51 PM,68.0,41.0,37,30.29,10.0,South,13.8,-,N/A,,Clear,180,2012-11-12 17:51:00
1:51 PM,66.0,43.0,43,30.28,10.0,SSE,16.1,23.0,N/A,,Clear,160,2012-11-12 18:51:00
2:51 PM,64.0,43.0,46,30.27,10.0,South,15.0,21.9,N/A,,Clear,170,2012-11-12 19:51:00
3:51 PM,61.0,43.0,52,30.27,10.0,SSE,13.8,-,N/A,,Clear,160,2012-11-12 20:51:00
4:51 PM,59.0,44.1,58,30.25,10.0,South,19.6,25.3,N/A,,Clear,170,2012-11-12 21:51:00
5:51 PM,55.9,46.9,72,30.24,10.0,South,23.0,32.2,N/A,,Clear,170,2012-11-12 22:51:00
6:51 PM,55.0,46.9,74,30.23,10.0,South,15.0,26.5,N/A,,Clear,180,2012-11-12 23:51:00
7:51 PM,55.9,48.0,75,30.17,10.0,South,17.3,28.8,N/A,,Clear,170,2012-11-13 00:51:00
8:51 PM,57.0,48.9,74,30.17,10.0,South,15.0,28.8,N/A,,Clear,180,2012-11-13 01:51:00
9:51 PM,57.0,50.0,77,30.15,10.0,South,17.3,29.9,N/A,,Clear,170,2012-11-13 02:51:00
10:51 PM,57.0,50.0,77,30.12,10.0,South,16.1,26.5,N/A,,Mostly Cloudy,170,2012-11-13 03:51:00
11:51 PM,57.9,50.0,75,30.10,10.0,South,10.4,19.6,N/A,,Overcast,180,2012-11-13 04:51:00